AAL2520 KSLC-KDFW

Flight info

Callsign AAL2520
Flight time 1h 51m
Altitude 35000
Route ZIONZ1 KIMMR PNH MDANO VKTRY2
Aircraft A321/M-SDE3FGHIRWY/LB1

Departure

Time 2026-05-05 02:42
Airport Salt Lake City International Airport (KSLC)

Arrival

Time 2026-05-05 04:33
Airport Dallas Fort Worth International Airport (KDFW)
Time Latitude Longitude Altitude Speed Heading
2026-05-05 02:06 40.78933 -111.99003 4231 ft 0 kts 175°
2026-05-05 02:26 40.78936 -111.99003 4231 ft 2 kts 175°
2026-05-05 02:27 40.78961 -111.99009 4231 ft 4 kts 158°
2026-05-05 02:27 40.78984 -111.99026 4231 ft 4 kts 137°
2026-05-05 02:27 40.79000 -111.99053 4231 ft 4 kts 111°
2026-05-05 02:27 40.79005 -111.99079 4231 ft 0 kts 85°
2026-05-05 02:31 40.79005 -111.99077 4231 ft 1 kts 85°
2026-05-05 02:31 40.79008 -111.99022 4231 ft 8 kts 85°
2026-05-05 02:32 40.79013 -111.98939 4231 ft 10 kts 85°
2026-05-05 02:32 40.79019 -111.98844 4231 ft 11 kts 85°
2026-05-05 02:32 40.79025 -111.98736 4231 ft 12 kts 85°
2026-05-05 02:32 40.79033 -111.98618 4231 ft 14 kts 85°
2026-05-05 02:33 40.79041 -111.98488 4231 ft 15 kts 85°
2026-05-05 02:33 40.79050 -111.98350 4231 ft 16 kts 85°
2026-05-05 02:33 40.79059 -111.98204 4231 ft 16 kts 85°
2026-05-05 02:33 40.79068 -111.98052 4231 ft 15 kts 85°
2026-05-05 02:34 40.79075 -111.97943 4231 ft 10 kts 85°
2026-05-05 02:34 40.79079 -111.97878 4231 ft 2 kts 85°
2026-05-05 02:34 40.79081 -111.97854 4231 ft 4 kts 81°
2026-05-05 02:34 40.79111 -111.97824 4231 ft 8 kts 13°
2026-05-05 02:35 40.79183 -111.97828 4231 ft 12 kts 355°
2026-05-05 02:35 40.79270 -111.97838 4231 ft 13 kts 355°
2026-05-05 02:35 40.79367 -111.97849 4231 ft 15 kts 354°
2026-05-05 02:35 40.79474 -111.97862 4231 ft 16 kts 354°
2026-05-05 02:36 40.79589 -111.97875 4231 ft 17 kts 355°
2026-05-05 02:36 40.79709 -111.97889 4231 ft 18 kts 355°
2026-05-05 02:36 40.79838 -111.97904 4231 ft 19 kts 355°
2026-05-05 02:36 40.79972 -111.97919 4231 ft 20 kts 355°
2026-05-05 02:37 40.80111 -111.97935 4231 ft 20 kts 355°
2026-05-05 02:37 40.80254 -111.97954 4231 ft 19 kts 351°
2026-05-05 02:37 40.80376 -111.97991 4231 ft 18 kts 352°
2026-05-05 02:37 40.80484 -111.98005 4231 ft 15 kts 354°
2026-05-05 02:38 40.80583 -111.98025 4231 ft 15 kts 346°
2026-05-05 02:38 40.80676 -111.98054 4231 ft 13 kts 353°
2026-05-05 02:38 40.80733 -111.98011 4231 ft 10 kts 71°
2026-05-05 02:38 40.80740 -111.97914 4231 ft 11 kts 86°
2026-05-05 02:39 40.80746 -111.97801 4229 ft 14 kts 90°
2026-05-05 02:39 40.80711 -111.97705 4229 ft 8 kts 139°
2026-05-05 02:39 40.80685 -111.97693 4229 ft 0 kts 173°
2026-05-05 02:40 40.80683 -111.97692 4229 ft 2 kts 173°
2026-05-05 02:41 40.80473 -111.97666 4232 ft 65 kts 174°
2026-05-05 02:41 40.79808 -111.97589 4230 ft 126 kts 175°
2026-05-05 02:41 40.78751 -111.97465 4233 ft 177 kts 175°
2026-05-05 02:41 40.77445 -111.97311 4653 ft 188 kts 173°
2026-05-05 02:42 40.76167 -111.97094 5484 ft 183 kts 171°
2026-05-05 02:42 40.74917 -111.96872 6214 ft 178 kts 171°
2026-05-05 02:42 40.73679 -111.96629 6571 ft 185 kts 171°
2026-05-05 02:42 40.72368 -111.96363 6836 ft 196 kts 171°
2026-05-05 02:43 40.70988 -111.96059 7103 ft 206 kts 171°
2026-05-05 02:43 40.69545 -111.95745 7380 ft 215 kts 171°
2026-05-05 02:43 40.68035 -111.95522 7599 ft 225 kts 178°
2026-05-05 02:43 40.66421 -111.95462 7729 ft 239 kts 180°
2026-05-05 02:44 40.64732 -111.95447 7834 ft 255 kts 180°
2026-05-05 02:44 40.62894 -111.95442 7963 ft 276 kts 180°
2026-05-05 02:44 40.60915 -111.95428 8217 ft 290 kts 180°
2026-05-05 02:44 40.58881 -111.95407 8708 ft 295 kts 180°
2026-05-05 02:45 40.56818 -111.95380 9233 ft 297 kts 180°
2026-05-05 02:45 40.54741 -111.95349 9768 ft 300 kts 180°
2026-05-05 02:45 40.52639 -111.95314 10152 ft 309 kts 180°
2026-05-05 02:45 40.50424 -111.95278 10278 ft 327 kts 180°
2026-05-05 02:46 40.48091 -111.95242 10414 ft 344 kts 180°
2026-05-05 02:46 40.45644 -111.95198 10584 ft 358 kts 179°
2026-05-05 02:46 40.43132 -111.95086 11004 ft 363 kts 178°
2026-05-05 02:46 40.40645 -111.94919 11518 ft 366 kts 177°
2026-05-05 02:47 40.38100 -111.94721 12083 ft 367 kts 177°
2026-05-05 02:47 40.35539 -111.94514 12662 ft 369 kts 177°
2026-05-05 02:47 40.32969 -111.94315 13223 ft 371 kts 177°
2026-05-05 02:47 40.30383 -111.94121 13762 ft 373 kts 177°
2026-05-05 02:48 40.27807 -111.93650 14282 ft 375 kts 167°
2026-05-05 02:48 40.25335 -111.92529 14796 ft 378 kts 155°
2026-05-05 02:48 40.23038 -111.90832 15307 ft 381 kts 149°
2026-05-05 02:48 40.20775 -111.89010 15814 ft 383 kts 149°
2026-05-05 02:49 40.18495 -111.87185 16328 ft 385 kts 149°
2026-05-05 02:49 40.16205 -111.85360 16810 ft 387 kts 149°
2026-05-05 02:49 40.13909 -111.83500 17271 ft 390 kts 148°
2026-05-05 02:49 40.11665 -111.81497 17731 ft 392 kts 143°
2026-05-05 02:50 40.09711 -111.79068 18137 ft 396 kts 131°
2026-05-05 02:50 40.08121 -111.76123 18544 ft 399 kts 121°
2026-05-05 02:50 40.06732 -111.72972 18936 ft 402 kts 122°
2026-05-05 02:50 40.05304 -111.69820 19314 ft 405 kts 122°
2026-05-05 02:51 40.03844 -111.66661 19687 ft 408 kts 122°
2026-05-05 02:51 40.02366 -111.63491 20054 ft 410 kts 122°
2026-05-05 02:51 40.00877 -111.60304 20414 ft 413 kts 122°
2026-05-05 02:51 39.99375 -111.57085 20760 ft 416 kts 122°
2026-05-05 02:52 39.97868 -111.53846 21081 ft 420 kts 122°
2026-05-05 02:52 39.96354 -111.50581 21414 ft 423 kts 122°
2026-05-05 02:52 39.94832 -111.47287 21737 ft 426 kts 122°
2026-05-05 02:52 39.93300 -111.43971 22054 ft 429 kts 122°
2026-05-05 02:53 39.91756 -111.40635 22370 ft 431 kts 122°
2026-05-05 02:53 39.90221 -111.37325 22681 ft 434 kts 122°
2026-05-05 02:53 39.88651 -111.33953 22981 ft 437 kts 122°
2026-05-05 02:53 39.87063 -111.30559 23268 ft 440 kts 123°
2026-05-05 02:54 39.85466 -111.27148 23569 ft 443 kts 122°
2026-05-05 02:54 39.83861 -111.23715 23856 ft 446 kts 122°
2026-05-05 02:54 39.82243 -111.20257 24145 ft 448 kts 123°
2026-05-05 02:54 39.80618 -111.16783 24420 ft 451 kts 123°
2026-05-05 02:55 39.78984 -111.13285 24683 ft 454 kts 123°
2026-05-05 02:55 39.77341 -111.09766 24928 ft 457 kts 123°
2026-05-05 02:55 39.75681 -111.06224 25164 ft 460 kts 123°
2026-05-05 02:55 39.74007 -111.02661 25425 ft 463 kts 123°
2026-05-05 02:56 39.72321 -110.99079 25677 ft 466 kts 123°
2026-05-05 02:56 39.70626 -110.95480 25916 ft 469 kts 124°
2026-05-05 02:56 39.68944 -110.91909 26138 ft 471 kts 124°
2026-05-05 02:56 39.67227 -110.88265 26361 ft 476 kts 124°
2026-05-05 02:57 39.65499 -110.84587 26600 ft 478 kts 124°
2026-05-05 02:57 39.63757 -110.80898 26841 ft 481 kts 124°
2026-05-05 02:57 39.62002 -110.77196 27065 ft 483 kts 124°
2026-05-05 02:57 39.60232 -110.73475 27282 ft 486 kts 125°
2026-05-05 02:58 39.58449 -110.69739 27485 ft 488 kts 125°
2026-05-05 02:58 39.56658 -110.65982 27682 ft 492 kts 125°
2026-05-05 02:58 39.54859 -110.62202 27885 ft 494 kts 125°
2026-05-05 02:58 39.53049 -110.58401 28081 ft 496 kts 125°
2026-05-05 02:59 39.51229 -110.54591 28261 ft 499 kts 125°
2026-05-05 02:59 39.49399 -110.50763 28447 ft 502 kts 125°
2026-05-05 02:59 39.47562 -110.46915 28639 ft 503 kts 125°
2026-05-05 02:59 39.45741 -110.43101 28811 ft 506 kts 126°
2026-05-05 03:00 39.43887 -110.39225 28994 ft 508 kts 126°
2026-05-05 03:00 39.42021 -110.35337 29154 ft 510 kts 126°
2026-05-05 03:00 39.40148 -110.31441 29366 ft 511 kts 126°
2026-05-05 03:00 39.38272 -110.27543 29600 ft 511 kts 126°
2026-05-05 03:01 39.36396 -110.23648 29814 ft 511 kts 126°
2026-05-05 03:01 39.34516 -110.19745 29998 ft 512 kts 126°
2026-05-05 03:01 39.32634 -110.15843 30165 ft 513 kts 127°
2026-05-05 03:01 39.30746 -110.11938 30328 ft 513 kts 127°
2026-05-05 03:02 39.28848 -110.08025 30477 ft 514 kts 127°
2026-05-05 03:02 39.26947 -110.04111 30671 ft 515 kts 127°
2026-05-05 03:02 39.25040 -110.00196 30906 ft 515 kts 128°
2026-05-05 03:02 39.23132 -109.96289 31098 ft 515 kts 128°
2026-05-05 03:03 39.21257 -109.92329 31242 ft 519 kts 126°
2026-05-05 03:03 39.19471 -109.88264 31372 ft 523 kts 124°
2026-05-05 03:03 39.17776 -109.84181 31538 ft 525 kts 124°
2026-05-05 03:03 39.16085 -109.80012 31736 ft 526 kts 124°
2026-05-05 03:04 39.14386 -109.75832 31929 ft 527 kts 124°
2026-05-05 03:04 39.12665 -109.71671 32118 ft 527 kts 125°
2026-05-05 03:04 39.10914 -109.67524 32278 ft 527 kts 126°
2026-05-05 03:04 39.09138 -109.63397 32479 ft 527 kts 127°
2026-05-05 03:05 39.07350 -109.59279 32643 ft 527 kts 127°
2026-05-05 03:05 39.05558 -109.55160 32811 ft 528 kts 127°
2026-05-05 03:05 39.03763 -109.51027 32955 ft 530 kts 127°
2026-05-05 03:05 39.01970 -109.46887 33108 ft 530 kts 127°
2026-05-05 03:06 39.00177 -109.42739 33248 ft 532 kts 127°
2026-05-05 03:06 38.98383 -109.38580 33405 ft 531 kts 127°
2026-05-05 03:06 38.96592 -109.34426 33570 ft 532 kts 127°
2026-05-05 03:06 38.94797 -109.30271 33720 ft 532 kts 127°
2026-05-05 03:07 38.93001 -109.26118 33862 ft 533 kts 128°
2026-05-05 03:07 38.91194 -109.21954 34010 ft 534 kts 128°
2026-05-05 03:07 38.89410 -109.17855 34178 ft 533 kts 128°
2026-05-05 03:07 38.87597 -109.13699 34329 ft 534 kts 128°
2026-05-05 03:08 38.85778 -109.09536 34452 ft 535 kts 128°
2026-05-05 03:08 38.83954 -109.05367 34607 ft 536 kts 128°
2026-05-05 03:08 38.82135 -109.01205 34751 ft 536 kts 128°
2026-05-05 03:08 38.80314 -108.97037 34922 ft 536 kts 128°
2026-05-05 03:09 38.78488 -108.92861 34979 ft 537 kts 128°
2026-05-05 03:09 38.74831 -108.84519 34979 ft 537 kts 128°
2026-05-05 03:10 38.71205 -108.76268 34968 ft 527 kts 129°
2026-05-05 03:10 38.67598 -108.68115 34967 ft 526 kts 129°
2026-05-05 03:11 38.63976 -108.59971 34963 ft 527 kts 129°
2026-05-05 03:11 38.60381 -108.51877 34961 ft 528 kts 129°
2026-05-05 03:12 38.56751 -108.43721 34952 ft 529 kts 129°
2026-05-05 03:12 38.53108 -108.35547 34939 ft 530 kts 129°
2026-05-05 03:13 38.49456 -108.27378 34930 ft 530 kts 129°
2026-05-05 03:13 38.45789 -108.19205 34932 ft 531 kts 129°
2026-05-05 03:14 38.42110 -108.11011 34944 ft 532 kts 129°
2026-05-05 03:14 38.38420 -108.02823 34952 ft 533 kts 129°
2026-05-05 03:15 38.34711 -107.94642 34956 ft 534 kts 129°
2026-05-05 03:15 38.31017 -107.86496 34961 ft 535 kts 129°
2026-05-05 03:16 38.27300 -107.78278 34979 ft 536 kts 129°
2026-05-05 03:16 38.23565 -107.70063 35018 ft 537 kts 129°
2026-05-05 03:17 38.19811 -107.61854 35028 ft 537 kts 129°
2026-05-05 03:17 38.16059 -107.53641 35044 ft 538 kts 129°
2026-05-05 03:18 38.12294 -107.45437 35063 ft 538 kts 129°
2026-05-05 03:18 38.08519 -107.37245 35059 ft 537 kts 130°
2026-05-05 03:19 38.02869 -107.25030 35060 ft 538 kts 129°
2026-05-05 03:19 37.99086 -107.16847 35065 ft 538 kts 130°
2026-05-05 03:20 37.95292 -107.08661 35068 ft 539 kts 130°
2026-05-05 03:20 37.91489 -107.00484 35074 ft 539 kts 129°
2026-05-05 03:21 37.87674 -106.92298 35064 ft 539 kts 130°
2026-05-05 03:21 37.83853 -106.84119 35067 ft 540 kts 129°
2026-05-05 03:22 37.80013 -106.75928 35074 ft 542 kts 130°
2026-05-05 03:22 37.76156 -106.67739 35079 ft 542 kts 130°
2026-05-05 03:23 37.72319 -106.59600 35098 ft 543 kts 129°
2026-05-05 03:23 37.68450 -106.51411 35082 ft 543 kts 129°
2026-05-05 03:24 37.64575 -106.43214 35072 ft 544 kts 129°
2026-05-05 03:24 37.61323 -106.36358 35061 ft 544 kts 129°
2026-05-05 03:25 37.57457 -106.28231 35052 ft 544 kts 130°
2026-05-05 03:25 37.53561 -106.20063 35056 ft 544 kts 130°
2026-05-05 03:26 37.49650 -106.11899 35053 ft 544 kts 130°
2026-05-05 03:26 37.45736 -106.03741 35046 ft 545 kts 130°
2026-05-05 03:27 37.41822 -105.95579 35036 ft 545 kts 129°
2026-05-05 03:27 37.37893 -105.87416 35016 ft 546 kts 130°
2026-05-05 03:28 37.33946 -105.79248 35011 ft 547 kts 130°
2026-05-05 03:28 37.29992 -105.71087 35016 ft 547 kts 130°
2026-05-05 03:29 37.26053 -105.62976 35033 ft 547 kts 130°
2026-05-05 03:29 37.22089 -105.54823 35047 ft 548 kts 129°
2026-05-05 03:30 37.18114 -105.46666 35057 ft 548 kts 130°
2026-05-05 03:30 37.14121 -105.38513 35076 ft 549 kts 130°
2026-05-05 03:31 37.10119 -105.30352 35097 ft 550 kts 130°
2026-05-05 03:31 37.06113 -105.22183 35099 ft 551 kts 129°
2026-05-05 03:32 37.02098 -105.14014 35077 ft 551 kts 130°
2026-05-05 03:32 36.98068 -105.05851 35070 ft 552 kts 130°
2026-05-05 03:33 36.94050 -104.97740 35023 ft 552 kts 130°
2026-05-05 03:33 36.90008 -104.89599 34985 ft 551 kts 130°
2026-05-05 03:34 36.85959 -104.81458 34975 ft 552 kts 130°
2026-05-05 03:34 36.81899 -104.73317 34962 ft 553 kts 130°
2026-05-05 03:35 36.77825 -104.65167 34950 ft 554 kts 130°
2026-05-05 03:35 36.73770 -104.57063 34929 ft 555 kts 130°
2026-05-05 03:36 36.69674 -104.48907 34920 ft 555 kts 130°
2026-05-05 03:36 36.65570 -104.40754 34919 ft 556 kts 130°
2026-05-05 03:37 36.61455 -104.32596 34919 ft 556 kts 130°
2026-05-05 03:37 36.57334 -104.24443 34920 ft 557 kts 130°
2026-05-05 03:38 36.53192 -104.16294 34922 ft 557 kts 130°
2026-05-05 03:38 36.49077 -104.08197 34921 ft 558 kts 130°
2026-05-05 03:39 36.44931 -104.00041 34913 ft 559 kts 130°
2026-05-05 03:39 36.40766 -103.91884 34905 ft 559 kts 130°
2026-05-05 03:40 36.36591 -103.83745 34889 ft 560 kts 130°
2026-05-05 03:40 36.32408 -103.75591 34881 ft 561 kts 130°
2026-05-05 03:41 36.28217 -103.67426 34865 ft 561 kts 130°
2026-05-05 03:41 36.24040 -103.59337 34856 ft 561 kts 130°
2026-05-05 03:42 36.19819 -103.51211 34839 ft 561 kts 130°
2026-05-05 03:42 36.15607 -103.43076 34825 ft 561 kts 130°
2026-05-05 03:43 36.11394 -103.34958 34818 ft 561 kts 130°
2026-05-05 03:43 36.07179 -103.26836 34810 ft 561 kts 130°
2026-05-05 03:44 36.02990 -103.18776 34819 ft 562 kts 130°
2026-05-05 03:44 35.98744 -103.10668 34818 ft 562 kts 130°
2026-05-05 03:45 35.94485 -103.02570 34806 ft 562 kts 130°
2026-05-05 03:45 35.90231 -102.94470 34800 ft 562 kts 130°
2026-05-05 03:46 35.85974 -102.86370 34792 ft 563 kts 130°
2026-05-05 03:46 35.81701 -102.78277 34790 ft 564 kts 130°
2026-05-05 03:47 35.77444 -102.70243 34786 ft 564 kts 130°
2026-05-05 03:47 35.73152 -102.62151 34785 ft 565 kts 130°
2026-05-05 03:48 35.68853 -102.54065 34780 ft 565 kts 130°
2026-05-05 03:48 35.64543 -102.45979 34781 ft 565 kts 130°
2026-05-05 03:49 35.60223 -102.37901 34784 ft 566 kts 130°
2026-05-05 03:49 35.55904 -102.29821 34784 ft 566 kts 130°
2026-05-05 03:50 35.51606 -102.21801 34784 ft 566 kts 130°
2026-05-05 03:50 35.47270 -102.13745 34790 ft 566 kts 130°
2026-05-05 03:51 35.42925 -102.05686 34788 ft 566 kts 130°
2026-05-05 03:51 35.38574 -101.97642 34793 ft 565 kts 130°
2026-05-05 03:52 35.34224 -101.89613 34783 ft 566 kts 130°
2026-05-05 03:52 35.29869 -101.81586 34786 ft 566 kts 130°
2026-05-05 03:53 35.25535 -101.73616 34785 ft 567 kts 130°
2026-05-05 03:53 35.21564 -101.65240 34800 ft 572 kts 121°
2026-05-05 03:54 35.17959 -101.56553 34796 ft 573 kts 121°
2026-05-05 03:54 35.14364 -101.47874 34802 ft 572 kts 121°
2026-05-05 03:55 35.10755 -101.39221 34801 ft 571 kts 121°
2026-05-05 03:55 35.07130 -101.30595 34797 ft 571 kts 121°
2026-05-05 03:56 35.03530 -101.22026 34791 ft 571 kts 121°
2026-05-05 03:56 34.99910 -101.13406 34789 ft 571 kts 121°
2026-05-05 03:57 34.96281 -101.04785 34787 ft 572 kts 121°
2026-05-05 03:57 34.92634 -100.96180 34774 ft 572 kts 121°
2026-05-05 03:58 34.88976 -100.87574 34764 ft 572 kts 121°
2026-05-05 03:58 34.85325 -100.78972 34758 ft 572 kts 121°
2026-05-05 03:59 34.81692 -100.70433 34751 ft 573 kts 121°
2026-05-05 03:59 34.78017 -100.61831 34749 ft 573 kts 121°
2026-05-05 04:00 34.74334 -100.53242 34746 ft 573 kts 121°
2026-05-05 04:00 34.70650 -100.44660 34740 ft 573 kts 121°
2026-05-05 04:01 34.66962 -100.36084 34737 ft 573 kts 121°
2026-05-05 04:01 34.63264 -100.27516 34733 ft 572 kts 121°
2026-05-05 04:02 34.59562 -100.18952 34732 ft 573 kts 121°
2026-05-05 04:02 34.55851 -100.10395 34730 ft 573 kts 121°
2026-05-05 04:03 34.52168 -100.01926 34733 ft 573 kts 121°
2026-05-05 04:03 34.48442 -99.93388 34722 ft 573 kts 121°
2026-05-05 04:04 34.44710 -99.84853 34717 ft 573 kts 120°
2026-05-05 04:04 34.40980 -99.76321 34720 ft 573 kts 121°
2026-05-05 04:05 34.37236 -99.67796 34721 ft 573 kts 121°
2026-05-05 04:05 34.33488 -99.59313 34724 ft 573 kts 121°
2026-05-05 04:06 34.29648 -99.50864 34724 ft 572 kts 123°
2026-05-05 04:06 34.25645 -99.42554 34716 ft 572 kts 124°
2026-05-05 04:07 34.21639 -99.34330 34725 ft 572 kts 123°
2026-05-05 04:07 34.17653 -99.26013 34721 ft 572 kts 123°
2026-05-05 04:08 34.13691 -99.17679 34718 ft 572 kts 123°
2026-05-05 04:08 34.09719 -99.09367 34268 ft 573 kts 123°
2026-05-05 04:09 34.07710 -99.05189 33378 ft 577 kts 122°
2026-05-05 04:09 34.05688 -99.00999 32533 ft 579 kts 122°
2026-05-05 04:09 34.03664 -98.96816 31797 ft 577 kts 122°
2026-05-05 04:09 34.01673 -98.92694 30999 ft 576 kts 122°
2026-05-05 04:10 33.99663 -98.88534 30207 ft 574 kts 122°
2026-05-05 04:10 33.97665 -98.84395 29517 ft 569 kts 122°
2026-05-05 04:10 33.95688 -98.80297 28936 ft 562 kts 122°
2026-05-05 04:10 33.93734 -98.76256 28361 ft 555 kts 122°
2026-05-05 04:11 33.91800 -98.72271 27780 ft 548 kts 123°
2026-05-05 04:11 33.89886 -98.68334 27213 ft 542 kts 123°
2026-05-05 04:11 33.87989 -98.64449 26836 ft 531 kts 123°
2026-05-05 04:11 33.86148 -98.60697 26346 ft 514 kts 123°
2026-05-05 04:12 33.84338 -98.57031 25603 ft 504 kts 123°
2026-05-05 04:12 33.82557 -98.53440 24826 ft 496 kts 123°
2026-05-05 04:12 33.80834 -98.49955 24050 ft 488 kts 124°
2026-05-05 04:12 33.79126 -98.46472 23259 ft 480 kts 123°
2026-05-05 04:13 33.77454 -98.43043 22568 ft 470 kts 123°
2026-05-05 04:13 33.75817 -98.39677 22022 ft 463 kts 123°
2026-05-05 04:13 33.74206 -98.36367 21642 ft 455 kts 123°
2026-05-05 04:13 33.72623 -98.33121 21259 ft 447 kts 123°
2026-05-05 04:14 33.71061 -98.29924 20827 ft 441 kts 123°
2026-05-05 04:14 33.69512 -98.26770 20397 ft 435 kts 123°
2026-05-05 04:14 33.67982 -98.23660 19958 ft 429 kts 122°
2026-05-05 04:14 33.66473 -98.20596 19523 ft 424 kts 122°
2026-05-05 04:15 33.64984 -98.17576 19067 ft 418 kts 122°
2026-05-05 04:15 33.63513 -98.14595 18623 ft 412 kts 122°
2026-05-05 04:15 33.62047 -98.11630 18100 ft 413 kts 122°
2026-05-05 04:15 33.60604 -98.08721 17614 ft 410 kts 122°
2026-05-05 04:16 33.59151 -98.05804 17292 ft 407 kts 122°
2026-05-05 04:16 33.57702 -98.02900 16803 ft 404 kts 122°
2026-05-05 04:16 33.56264 -98.00019 16304 ft 401 kts 122°
2026-05-05 04:16 33.54841 -97.97155 15808 ft 398 kts 122°
2026-05-05 04:17 33.53428 -97.94310 15321 ft 395 kts 122°
2026-05-05 04:17 33.52032 -97.91505 14989 ft 387 kts 122°
2026-05-05 04:17 33.50670 -97.88773 14636 ft 379 kts 123°
2026-05-05 04:17 33.49328 -97.86082 14280 ft 374 kts 123°
2026-05-05 04:18 33.47997 -97.83417 13784 ft 371 kts 123°
2026-05-05 04:18 33.46673 -97.80773 13313 ft 369 kts 123°
2026-05-05 04:18 33.45361 -97.78150 12838 ft 365 kts 123°
2026-05-05 04:18 33.44063 -97.75548 12363 ft 363 kts 123°
2026-05-05 04:19 33.42774 -97.72962 11891 ft 360 kts 123°
2026-05-05 04:19 33.41490 -97.70399 11431 ft 358 kts 123°
2026-05-05 04:19 33.40242 -97.67899 11142 ft 349 kts 124°
2026-05-05 04:19 33.39023 -97.65453 11004 ft 336 kts 124°
2026-05-05 04:20 33.37766 -97.63151 10711 ft 326 kts 130°
2026-05-05 04:20 33.36432 -97.60976 10386 ft 322 kts 130°
2026-05-05 04:20 33.35110 -97.58829 9999 ft 320 kts 130°
2026-05-05 04:20 33.33794 -97.56696 9595 ft 318 kts 131°
2026-05-05 04:21 33.32483 -97.54575 9199 ft 316 kts 131°
2026-05-05 04:21 33.31187 -97.52479 8804 ft 314 kts 131°
2026-05-05 04:21 33.29897 -97.50385 8459 ft 311 kts 132°
2026-05-05 04:21 33.28622 -97.48306 8054 ft 310 kts 131°
2026-05-05 04:22 33.27579 -97.46056 7725 ft 312 kts 116°
2026-05-05 04:22 33.27062 -97.43524 7334 ft 316 kts 99°
2026-05-05 04:22 33.26922 -97.40911 6979 ft 314 kts 97°
2026-05-05 04:22 33.26790 -97.38294 6568 ft 313 kts 97°
2026-05-05 04:23 33.26663 -97.35721 6245 ft 308 kts 98°
2026-05-05 04:23 33.26534 -97.33207 5775 ft 308 kts 99°
2026-05-05 04:23 33.26396 -97.30676 5370 ft 305 kts 99°
2026-05-05 04:23 33.26261 -97.28186 5219 ft 295 kts 99°
2026-05-05 04:24 33.26138 -97.25786 5088 ft 283 kts 99°
2026-05-05 04:24 33.26026 -97.23482 4983 ft 271 kts 99°
2026-05-05 04:24 33.25932 -97.21259 4996 ft 272 kts 100°
2026-05-05 04:25 33.25520 -97.16556 4998 ft 289 kts 103°
2026-05-05 04:25 33.25292 -97.14177 4998 ft 289 kts 102°
2026-05-05 04:25 33.25043 -97.11803 4994 ft 286 kts 108°
2026-05-05 04:25 33.24277 -97.09719 4993 ft 263 kts 135°
2026-05-05 04:26 33.22977 -97.08344 4997 ft 242 kts 151°
2026-05-05 04:26 33.21595 -97.07211 4996 ft 241 kts 152°
2026-05-05 04:26 33.20210 -97.06099 4995 ft 237 kts 154°
2026-05-05 04:26 33.18777 -97.05396 4994 ft 220 kts 176°
2026-05-05 04:27 33.17301 -97.05326 4995 ft 208 kts 184°
2026-05-05 04:27 33.15878 -97.05336 4999 ft 197 kts 184°
2026-05-05 04:27 33.14524 -97.05344 4963 ft 193 kts 185°
2026-05-05 04:27 33.13192 -97.05351 4775 ft 188 kts 185°
2026-05-05 04:28 33.11898 -97.05358 4550 ft 183 kts 184°
2026-05-05 04:28 33.10632 -97.05365 4310 ft 181 kts 183°
2026-05-05 04:28 33.09385 -97.05371 4078 ft 178 kts 182°
2026-05-05 04:28 33.08181 -97.05378 3850 ft 169 kts 183°
2026-05-05 04:29 33.07019 -97.05385 3630 ft 166 kts 182°
2026-05-05 04:29 33.05871 -97.05392 3409 ft 163 kts 182°
2026-05-05 04:29 33.04793 -97.05396 3212 ft 148 kts 181°
2026-05-05 04:29 33.03786 -97.05401 3010 ft 141 kts 181°
2026-05-05 04:30 33.02802 -97.05407 2819 ft 142 kts 181°
2026-05-05 04:30 33.01814 -97.05413 2628 ft 143 kts 181°
2026-05-05 04:30 33.00826 -97.05418 2442 ft 145 kts 180°
2026-05-05 04:30 32.99814 -97.05423 2249 ft 146 kts 180°
2026-05-05 04:31 32.98795 -97.05427 2053 ft 143 kts 180°
2026-05-05 04:31 32.97835 -97.05432 1861 ft 135 kts 181°
2026-05-05 04:31 32.96901 -97.05437 1690 ft 133 kts 181°
2026-05-05 04:31 32.95973 -97.05441 1512 ft 134 kts 180°
2026-05-05 04:32 32.95040 -97.05447 1334 ft 135 kts 180°
2026-05-05 04:32 32.94104 -97.05456 1160 ft 134 kts 179°
2026-05-05 04:32 32.93175 -97.05459 999 ft 133 kts 181°
2026-05-05 04:32 32.92246 -97.05460 809 ft 133 kts 181°
2026-05-05 04:33 32.91319 -97.05468 629 ft 133 kts 181°
2026-05-05 04:33 32.90521 -97.05472 610 ft 93 kts 179°
2026-05-05 04:33 32.90044 -97.05472 603 ft 45 kts 180°
2026-05-05 04:33 32.89787 -97.05472 607 ft 28 kts 177°
2026-05-05 04:34 32.89599 -97.05414 604 ft 28 kts 155°
2026-05-05 04:34 32.89448 -97.05313 602 ft 19 kts 149°
2026-05-05 04:34 32.89403 -97.05190 597 ft 18 kts 89°
2026-05-05 04:34 32.89401 -97.05038 599 ft 18 kts 91°
2026-05-05 04:35 32.89399 -97.04883 597 ft 18 kts 90°
2026-05-05 04:35 32.89433 -97.04773 595 ft 15 kts 23°
2026-05-05 04:35 32.89536 -97.04765 597 ft 15 kts
2026-05-05 04:35 32.89638 -97.04764 598 ft 15 kts 360°
2026-05-05 04:36 32.89748 -97.04764 597 ft 17 kts
2026-05-05 04:36 32.89870 -97.04763 597 ft 18 kts
2026-05-05 04:36 32.89992 -97.04763 599 ft 18 kts
2026-05-05 04:36 32.90099 -97.04760 598 ft 13 kts
2026-05-05 04:37 32.90134 -97.04668 597 ft 14 kts 89°
2026-05-05 04:37 32.90134 -97.04546 597 ft 15 kts 90°
2026-05-05 04:37 32.90133 -97.04416 596 ft 15 kts 90°
2026-05-05 04:37 32.90133 -97.04337 596 ft 3 kts 88°
2026-05-05 04:38 32.90142 -97.04311 596 ft 4 kts 56°
2026-05-05 04:38 32.90171 -97.04296 596 ft 4 kts 12°
2026-05-05 04:38 32.90185 -97.04293 596 ft 1 kts 10°
2026-05-05 04:38 32.90186 -97.04293 596 ft 0 kts 10°